STARLINK-11404, 62019

Orbit data source: Space-Track

STARLINK-11404, 62019 is a payload satellite owned by SpaceX/Seattle (US) in LEO that was launched on Mon, 18 Nov 2024 UTC via an FALCON 9 launch vehicle from the Air Force Western Test Range (AFWTR). Payloads include a variety of satellites, spacecraft, and rockets equipped with specific instruments for various scientific and technological missions. These include communications satellites like Starlink; space stations such as the ISS; scientific satellites like the Hubble; Earth observation satellites from companies like Planet Labs, Umbra, and HawkEye 360; GPS; miniature CubeSats for education and research; and military/defense satellites.

Not visible in the next 10 days
STARLINK-11404 details
Identifier
62019, 2024-213M
Orbit
LEO
Last TLE update8 hours ago
Origin
Flag of USSpaceX/Seattle (US)
ManufacturerSpaceX/Seattle
MissionOperational spacecraft
Bus & MotorSTARLINK V2M, Unknown motor
Mass730 kg wet, ~700 kg dry
Launch date (UTC)
2024-11-18 (2 weeks ago)
Launch vehicle
FALCON 9
Launch site
Air Force Western Test Range (AFWTR)
Object type
Payload
Rocket body
Debris
Shape & HBRUnknown
Radar Cross SectionLarge (>1 m²)

Expand to show TLE details & history

TLE from 8 hours ago
0 STARLINK-11404
1 62019U 24213M   24337.09252932  .00168279  00000-0  53388-3 0  9994
2 62019  53.1609 165.7784 0001397  67.9981 292.1194 15.90247413  3201
Epoch: 2024-12-02T02:13Z
Definitive object data (Epoch: 2024-12-02T02:13:14.533Z)
Latitude-0.00002°
Longitude61.04648°
Altitude302.162 km
Speed7.728 km/s
True Right ascension11h 03m 06s
True Declination0° 00' 00"
Sunlit
Object was in daylight at TLE epoch
Visualization TLE readout
Latitude23.30859°
Longitude-139.40435°
Altitude301.937 km
Speed7.73 km/s
Apparent Right ascension21h 00m 52s
Apparent Declination-7° 35' 48"
Sunlit
Object is in daylight
Visualization observer readout
Local Sidereal Time08:10:03
Azimuth337.22° NNW
Elevation-55.738°
Doppler factor1
Orbital elements
Apogee altitude302.786 km
Perigee altitude300.919 km
Semi-major axis6,679.99 km
Eccentricity0.0001397
Inclination53.1609°
RAAN165.7784°
Arg. of periapsis67.9981°
True anomaly292.10457°
Mean anomaly292.1194°
Eccentric anomaly292.11198°
Mean motion3.97539 °/min
BSTAR0.00053388
Orbital period90.56 mins
Loading maneuver chart data...
Loading historical data...
Loading historical data...
Loading historical data...
Loading historical data...
Loading historical data...
Loading historical data...
Loading historical data...

STARLINK-11404 Visibility forecast

Observer location: undefined°, undefined

STARLINK-11404 is not visible in the next 10 days
Span
Click to sort rows by Start time (UTC) header in descending order
Start Az.
Max El. time (UTC)
Max El. Az.
Max El.
End time (UTC)
End Az.
|